Regional Weather Roundup
Issued by NWS

Home | Current Version | Previous Version | Graphics & Text | Print | Product List | Glossary On
Versions: 1 2 3 4 5 6 7 8 9 10 11 12 13 14 15 16 17 18 19 20 21 22 23 24 25 26 27 28 29 30 31 32 33 34 35 36 37 38 39 40 41 42 43 44 45 46 47 48 49 50
000
ASUS43 KDTX 052101
RWRMI
MICHIGAN HOURLY REGIONAL WEATHER ROUNDUP
NATIONAL WEATHER SERVICE DETROIT/PONTIAC MI
500 PM EDT THU MAY 05 2016

NOTE: "FAIR" INDICATES FEW OR NO CLOUDS BELOW 12,000 FEET WITH NO
SIGNIFICANT WEATHER AND/OR OBSTRUCTION TO VISIBILITY.

MIZ047>049-052>055-059>063-066>070-074>076-081>083-052200-
SOUTHEAST LOWER MICHIGAN

CITY           SKY/WX    TMP DP  RH WIND       PRES   REMARKS
ADRIAN         MOSUNNY   66  40  38 NE17G29   29.86S
ALMA           MOSUNNY   64  40  42 NW6       29.91S
ANN ARBOR      CLOUDY    62  40  44 N14G21    29.86S
BAD AXE        SUNNY     58  40  50 NE10G16   29.91F
CARO           SUNNY     63  40  43 N12G17    29.90S
DETROIT CITY   PTSUNNY   65  34  31 N22G28    29.84S
DETROIT        PTSUNNY   64  36  35 N18       29.85S
FLINT          SUNNY     67  39  35 N14G24    29.90S
GROSSE ILE     PTSUNNY   68  36  30 N14G21    29.82F
HILLSDALE      PTSUNNY   64  31  29 N15G21    29.88S
HOWELL         SUNNY     62  38  40 N10G20    29.89S

CITY           SKY/WX    TMP DP  RH WIND       PRES   REMARKS
JACKSON        MOSUNNY   65  36  34 N15G24    29.89S
LAMBERTVILLE   CLOUDY    64  39  39 N8        29.84F
LANSING        PTSUNNY   66  43  43 N13       29.90F
LAPEER         FAIR      64  34  33 N12G24    29.88S
MASON          PTSUNNY   63  41  44 NE12      29.90S
MONROE         CLOUDY    65  42  42 NE12G21   29.83F
MT. CLEMENS    SUNNY     64  38  37 N22G29    29.84S
PONTIAC        MOSUNNY   64  40  41 N14G26    29.86S
PORT HOPE        N/A     48  42  80 N12       29.91S
PORT HURON     SUNNY     63  36  36 N13G24    29.86S
TRI CITIES     SUNNY     66  42  41 NE7       29.90F
MIDLAND        FAIR      64  45  50 E3        29.89S
TROY           PTSUNNY   65  36  33 N14G24    29.87S
SAGINAW HB     SUNNY     63  46  55 NE7       29.90S
$$
MIZ043>046-050>051-056>058-064>065-071>073-077>080-052200-
SOUTHWEST LOWER MICHIGAN

CITY           SKY/WX    TMP DP  RH WIND       PRES   REMARKS
BATTLE CREEK   PTSUNNY   64  39  39 N15       29.90F
BENTON HARBOR  SUNNY     49  42  77 VRB6      29.98F
BIG RAPIDS     PTSUNNY   65  37  35 CALM      29.91F
COLDWATER      PTSUNNY   64  40  42 N14       29.89S
FREMONT        FAIR      65  40  40 NW15      29.93S
HOLLAND        SUNNY    N/A N/A N/A NW15      29.96S
GRAND RAPIDS   PTSUNNY   69  42  37 NW14      29.91F
IONIA          FAIR      66  39  37 N10       29.90S
KALAMAZOO      CLOUDY    63  43  48 N14       29.91F
LUDINGTON      SUNNY     55  39  54 N8        29.97F
MARSHALL       PTSUNNY   63  41  44 N7        29.89S
MOUNT PLEASANT CLOUDY    66  40  38 NE6       29.89F
MUSKEGON       MOSUNNY   62  42  47 NW9       29.95S
$$
MIZ016>042-052200-
NORTHERN LOWER MICHIGAN

CITY           SKY/WX    TMP DP  RH WIND       PRES   REMARKS
ALPENA         SUNNY     66  42  41 N12       29.91F
BEAVER ISLAND  SUNNY     53  36  53 SW8       29.96S
BELLAIRE       SUNNY     59  39  48 W5        29.95F
CADILLAC       PTSUNNY   65  43  45 N9        29.92F
CHARLEVOIX     SUNNY     53  40  62 W8        29.99F
FRANKFORT      SUNNY     55  39  54 NW7       29.97F
GAYLORD        SUNNY     62  38  40 W10       29.92F
GRAYLING       MOSUNNY   66  42  40 NW7G16    29.92F
HARBOR SPRINGS SUNNY     44  38  78 SW8       29.95F
HOUGHTON LAKE  CLOUDY    63  41  44 N3        29.91F
MANISTEE       SUNNY     52  36  54 NW13      29.98F
OSCODA         SUNNY     59  40  49 NE16      29.90F
PELLSTON       SUNNY     62  39  42 NW10      29.93F
ROGERS CITY    SUNNY     57  43  57 N7        29.93F
TRAVERSE CITY  MOSUNNY   54  40  59 N8        29.95F
$$
MIZ007>008-015-052200-
EASTERN UPPER MICHIGAN

CITY           SKY/WX    TMP DP  RH WIND       PRES   REMARKS
KINROSS          N/A     55  37  50 N10       29.93S
MACKINAC ISLAN SUNNY     54  40  59 W8        29.93F
NEWBERRY       SUNNY     62  37  40 N6G16     29.92F
S. S. MARIE    SUNNY     56  37  49 NW10      29.93F
MUNISING         N/A     45  36  70 N5        29.94F
$$
MIZ004>006-011>014-085-052200-
CENTRAL UPPER MICHIGAN

CITY           SKY/WX    TMP DP  RH WIND       PRES   REMARKS
MANISTIQUE     SUNNY     52  39  60 S9        29.95S
ESCANABA       SUNNY     55  37  50 S9        29.94F
MENOMINEE      SUNNY     61  39  44 E10       29.95F
SAWYER-GWINN   SUNNY     64  34  32 E7        29.93F
$$
MIZ001>003-009>011-084-052200-
WESTERN UPPER MICHIGAN

CITY           SKY/WX    TMP DP  RH WIND       PRES   REMARKS
IRON MOUNTAIN  SUNNY     69  20  15 CALM      29.90F
HOUGHTON       SUNNY     66  31  27 SE9       29.88F
COPPER HARBOR    N/A     55  34  45 VRB6      29.89F
IRONWOOD         N/A     72  37  28 W16       29.85F
$$

ABBREVIATIONS USED IN REMARKS
   TC - TEMPERATURE IN CELSIUS
  WCI - WIND CHILL INDEX
   HX - HEAT INDEX
  VSB - VISIBILITY





USA.gov is the U.S. government's official web portal to all federal, state and local government web resources and services.